Location: Oberkirch
(48.5323°N, 8.0787°E)
Time: 04:36:59
(UTC+00:00)

CUBEBUG 2 - Pass Details

Date: 20 March 2026
Orbit: 548 x 627 km, 97.9° (Epoch: 17 April)

Event Time Altitude Azimuth Distance (km) Brightness Sun altitude
Rises 00:57:55 0° 25° (NNE) 2,913 ? -38.5°
Reaches altitude 10° 01:00:29 10° 39° (NE) 2,008 ? -38.3°
Enters shadow 01:01:07 13° 45° (NE) 1,817 ? -38.3°
